Location: Johnson City
(36.3130°N, 82.3540°W)
Time: 13:15:31
(UTC-05:00)

ISS - Visible Passes

Search period start: 25 January 2021 00:00
Search period end: 04 February 2021 00:00
Orbit: 418 x 421 km, 51.6° (Epoch: 25 January)

Date Brightness Start Highest point End Pass type
(mag) Time Alt. Az. Time Alt. Az. Time Alt. Az.
31 Jan -0.8 19:55:23 10° NNW 19:55:27 10° NNW 19:55:27 10° NNW visible
01 Feb -1.7 19:08:22 10° NNW 19:10:13 15° NNE 19:10:13 15° NNE visible
02 Feb -1.4 18:21:39 10° N 18:22:45 11° NNE 18:23:51 10° NE visible
02 Feb -1.5 19:56:51 10° NW 19:58:05 20° NW 19:58:05 20° NW visible
03 Feb -3.0 19:09:33 10° NNW 19:12:40 33° NE 19:13:06 31° NE visible
